DBair |  Recent searches |  Recent views |  Contact us |  Sign In
DBair, not only an aviation database

Prince Abdul Majeed Airport, Al-Ula, Saudi Arabia

METAR

2014/04/24 08:00
OEAO 240800Z 30002KT CAVOK 35/01 Q1014

TAF

2012/12/17 06:00
TAF OEAO 170430Z 1706/1715 13013KT 9999 FEW040 SCT100
Name:Prince Abdul Majeed Airport
City:Al-Ula
Country:Saudi Arabia
IATA/FAA:ULH
ICAO:OEAO
Latitude:26.6367180
Longitude:37.9080180
Altitude:2047 (in feet)
Timezone: 3 (hours offset from UTC)
DST:N (None)
Keywords: prince abdul majeed airport, al-ula, saudi arabia, ulh, oeao, 26.636718, 37.908018,

Map:

Full ICAO list |  Full IATA list |  Full airport list